TimeMDT,TemperatureF,Dew PointF,Humidity,Sea Level PressureIn,VisibilityMPH,Wind Direction,Wind SpeedMPH,Gust SpeedMPH,PrecipitationIn,Events,Conditions,WindDirDegrees,DateUTC
1:12 AM,78.8,66.2,65,29.89,10.0,Calm,Calm,-,N/A,,Scattered Clouds,0,2012-10-11 07:12:00
2:30 AM,78,67,60,29.85,5,West,2.2,,,,Partly Cloudy,280,2012-10-11 08:30:00
2:49 AM,78.8,66.2,65,29.88,10.0,Calm,Calm,-,N/A,,Scattered Clouds,0,2012-10-11 08:49:00
4:04 AM,78.8,66.2,65,29.86,10.0,Calm,Calm,-,N/A,,Scattered Clouds,0,2012-10-11 10:04:00
4:51 AM,80.6,66.2,61,29.86,10.0,Calm,Calm,-,N/A,,Scattered Clouds,0,2012-10-11 10:51:00
5:30 AM,77,65,59,29.83,5,NNE,2.2,,,,Mostly Cloudy,20,2012-10-11 11:30:00
5:47 AM,80.6,66.2,61,29.83,10.0,Calm,Calm,-,N/A,,Scattered Clouds,0,2012-10-11 11:47:00
6:44 AM,78.8,68.0,69,29.87,10.0,East,4.6,-,N/A,,Scattered Clouds,80,2012-10-11 12:44:00
7:50 AM,78.8,68.0,69,29.89,10.0,ENE,4.6,-,N/A,,Mostly Cloudy,70,2012-10-11 13:50:00
8:35 AM,76,65,60,29.88,7,North,2.2,,,,Mostly Cloudy,0,2012-10-11 14:35:00
9:00 AM,80.6,68.0,65,29.88,10.0,Calm,Calm,-,N/A,,Mostly Cloudy,0,2012-10-11 15:00:00
9:47 AM,82.4,66.2,58,29.93,10.0,East,5.8,-,N/A,,Scattered Clouds,100,2012-10-11 15:47:00
10:41 AM,86.0,64.4,48,29.93,10.0,SE,6.9,-,N/A,,Scattered Clouds,130,2012-10-11 16:41:00
11:40 AM,87.8,62.6,43,29.89,10.0,SE,8.1,-,N/A,,Scattered Clouds,130,2012-10-11 17:40:00
12:47 PM,91.4,62.6,38,29.92,10.0,South,11.5,-,N/A,,Scattered Clouds,170,2012-10-11 18:47:00
1:50 PM,93.2,59.0,32,29.89,10.0,SE,13.8,-,N/A,,Partly Cloudy,140,2012-10-11 19:50:00
2:45 PM,93,59,23,29.82,7,SW,2.2,,,,Partly Cloudy,230,2012-10-11 20:45:00
2:50 PM,91.4,60.8,36,29.80,10.0,SSE,9.2,-,N/A,,Scattered Clouds,160,2012-10-11 20:50:00
3:46 PM,93.2,59.0,32,29.86,10.0,SSW,12.7,-,N/A,,Scattered Clouds,210,2012-10-11 21:46:00
4:43 PM,91.4,59.0,34,29.86,10.0,SW,16.1,-,N/A,,Mostly Cloudy,220,2012-10-11 22:43:00
5:30 PM,89,60,28,29.82,7,SW,2.2,,,,Partly Cloudy,230,2012-10-11 23:30:00
5:44 PM,87.8,59.0,38,29.85,10.0,SSW,10.4,-,N/A,,Mostly Cloudy,210,2012-10-11 23:44:00
6:44 PM,86.0,60.8,43,29.89,10.0,SW,12.7,-,N/A,,Scattered Clouds,220,2012-10-12 00:44:00
7:42 PM,82.4,57.2,42,29.90,10.0,SSW,10.4,-,N/A,,Scattered Clouds,200,2012-10-12 01:42:00
8:40 PM,81,58,35,29.87,5,SW,4.5,,,,Scattered Clouds,220,2012-10-12 02:40:00
8:45 PM,80.6,57.2,45,29.91,10.0,WSW,4.6,-,N/A,,Scattered Clouds,240,2012-10-12 02:45:00
9:43 PM,77.0,55.4,47,29.94,10.0,SW,4.6,-,N/A,,Scattered Clouds,220,2012-10-12 03:43:00
10:40 PM,77.0,55.4,47,29.94,10.0,South,3.5,-,N/A,,Scattered Clouds,190,2012-10-12 04:40:00
11:41 PM,75.2,57.2,53,29.92,10.0,Calm,Calm,-,N/A,,Scattered Clouds,0,2012-10-12 05:41:00